�������l�o���
Date,Time,MP-1(��Sv/h),MP-2(��Sv/h),MP-3(��Sv/h),MP-4(��Sv/h),MP-5(��Sv/h),MP-6(��Sv/h),MP-7(��Sv/h),MP-8(��Sv/h),����,����(m/s),���J
2021/09/21,00:00,0.589,0.878,0.558,1.068,0.761,0.359,0.622,0.584,��쐼,1.5,��
2021/09/21,00:10,0.589,0.879,0.561,1.068,0.760,0.359,0.621,0.582,��쐼,1.2,��
2021/09/21,00:20,0.589,0.877,0.560,1.065,0.760,0.360,0.624,0.583,��쐼,0.9,��
2021/09/21,00:30,0.588,0.878,0.560,1.066,0.760,0.360,0.622,0.583,�쐼,1.2,��
2021/09/21,00:40,0.588,0.880,0.559,1.068,0.758,0.361,0.623,0.584,��쐼,1.1,��
2021/09/21,00:50,0.589,0.878,0.561,1.066,0.759,0.360,0.623,0.582,�쐼,1.2,��
2021/09/21,01:00,0.588,0.876,0.559,1.067,0.759,0.360,0.622,0.584,�쐼,1.2,��
2021/09/21,01:10,0.589,0.880,0.560,1.067,0.758,0.359,0.622,0.585,�쐼,1.5,��
2021/09/21,01:20,0.587,0.878,0.559,1.068,0.759,0.359,0.623,0.582,��쐼,1.9,��
2021/09/21,01:30,0.589,0.877,0.559,1.065,0.759,0.360,0.622,0.583,��쐼,1.9,��
2021/09/21,01:40,0.588,0.877,0.558,1.067,0.761,0.360,0.622,0.583,��쐼,2.3,��
2021/09/21,01:50,0.587,0.878,0.560,1.069,0.759,0.360,0.623,0.583,��쐼,2.0,��
2021/09/21,02:00,0.587,0.878,0.558,1.067,0.760,0.361,0.623,0.583,��,2.3,��
2021/09/21,02:10,0.589,0.878,0.560,1.069,0.759,0.360,0.622,0.582,��,2.8,��
2021/09/21,02:20,0.587,0.877,0.561,1.069,0.760,0.361,0.622,0.583,��,2.5,��
2021/09/21,02:30,0.587,0.878,0.559,1.066,0.757,0.361,0.623,0.582,��쐼,2.5,��
2021/09/21,02:40,0.588,0.878,0.558,1.069,0.759,0.362,0.622,0.583,��쐼,2.3,��
2021/09/21,02:50,0.589,0.877,0.560,1.067,0.760,0.360,0.622,0.583,��쐼,2.3,��
2021/09/21,03:00,0.586,0.879,0.559,1.068,0.760,0.360,0.623,0.583,��쐼,2.2,��
2021/09/21,03:10,0.586,0.877,0.558,1.067,0.758,0.361,0.621,0.584,��쐼,2.3,��
2021/09/21,03:20,0.586,0.877,0.560,1.068,0.758,0.360,0.622,0.582,��쐼,2.2,��
2021/09/21,03:30,0.587,0.878,0.560,1.067,0.759,0.360,0.621,0.582,��쐼,2.2,��
2021/09/21,03:40,0.589,0.879,0.560,1.067,0.759,0.360,0.622,0.582,��쐼,2.0,��
2021/09/21,03:50,0.588,0.877,0.562,1.067,0.759,0.359,0.624,0.583,�쐼,1.7,��
2021/09/21,04:00,0.588,0.876,0.560,1.067,0.757,0.360,0.621,0.583,�쐼,2.0,��
2021/09/21,04:10,0.588,0.878,0.559,1.067,0.758,0.360,0.623,0.582,�쐼,1.7,��
2021/09/21,04:20,0.590,0.876,0.558,1.066,0.758,0.362,0.623,0.582,�쐼,1.7,��
2021/09/21,04:30,0.587,0.877,0.559,1.068,0.759,0.359,0.623,0.583,�쐼,1.7,��
2021/09/21,04:40,0.588,0.877,0.560,1.067,0.761,0.360,0.622,0.582,�쐼,2.0,��
2021/09/21,04:50,0.588,0.875,0.559,1.066,0.758,0.359,0.622,0.582,���쐼,2.3,��
2021/09/21,05:00,0.586,0.876,0.559,1.069,0.761,0.360,0.622,0.584,�쐼,2.3,��
2021/09/21,05:10,0.587,0.875,0.560,1.066,0.759,0.358,0.622,0.583,�쐼,2.6,��
2021/09/21,05:20,0.586,0.875,0.558,1.066,0.759,0.360,0.623,0.582,�쐼,2.3,��
2021/09/21,05:30,0.588,0.875,0.560,1.067,0.758,0.359,0.622,0.584,�쐼,2.0,��
2021/09/21,05:40,0.588,0.876,0.559,1.071,0.758,0.360,0.621,0.583,�쐼,1.7,��
2021/09/21,05:50,0.586,0.876,0.558,1.068,0.758,0.359,0.622,0.583,�쐼,1.7,��
2021/09/21,06:00,0.586,0.878,0.560,1.068,0.758,0.360,0.622,0.583,�쐼,2.2,��
2021/09/21,06:10,0.585,0.876,0.559,1.068,0.758,0.359,0.622,0.582,�쐼,2.3,��
2021/09/21,06:20,0.589,0.876,0.560,1.067,0.759,0.359,0.622,0.584,��쐼,1.5,��
2021/09/21,06:30,0.588,0.878,0.559,1.069,0.759,0.360,0.621,0.583,��쐼,1.5,��
2021/09/21,06:40,0.587,0.877,0.560,1.068,0.760,0.358,0.624,0.583,�쐼,1.9,��
2021/09/21,06:50,0.587,0.876,0.559,1.068,0.758,0.359,0.622,0.583,��쐼,1.2,��
2021/09/21,07:00,0.587,0.875,0.559,1.067,0.759,0.359,0.623,0.583,��쐼,0.6,��
2021/09/21,07:10,0.587,0.878,0.559,1.068,0.758,0.358,0.623,0.583,��쓌,0.6,��
2021/09/21,07:20,0.589,0.878,0.560,1.068,0.758,0.359,0.625,0.584,��쓌,0.9,��
2021/09/21,07:30,0.589,0.877,0.560,1.069,0.758,0.358,0.625,0.584,��쓌,0.6,��
2021/09/21,07:40,0.588,0.875,0.560,1.066,0.759,0.359,0.625,0.585,���쓌,0.6,��
2021/09/21,07:50,0.591,0.875,0.561,1.067,0.761,0.358,0.623,0.585,���쓌,1.1,��
2021/09/21,08:00,0.589,0.874,0.561,1.068,0.759,0.359,0.624,0.585,�쓌,0.8,��
2021/09/21,08:10,0.590,0.876,0.560,1.070,0.761,0.357,0.623,0.583,���쓌,1.2,��
2021/09/21,08:20,0.588,0.876,0.559,1.070,0.761,0.359,0.622,0.586,�쓌,1.5,��
2021/09/21,08:30,0.588,0.876,0.558,1.071,0.759,0.358,0.622,0.584,��쓌,2.0,��
2021/09/21,08:40,0.589,0.877,0.560,1.070,0.760,0.359,0.622,0.582,�쓌,2.0,��
2021/09/21,08:50,0.588,0.876,0.559,1.070,0.760,0.358,0.620,0.583,�쓌,2.3,��
2021/09/21,09:00,0.588,0.877,0.560,1.070,0.760,0.358,0.621,0.580,�쓌,2.0,��
2021/09/21,09:10,0.588,0.880,0.560,1.068,0.759,0.361,0.621,0.582,���쓌,2.3,��
2021/09/21,09:20,0.589,0.877,0.560,1.068,0.760,0.359,0.621,0.582,���쓌,2.3,��
2021/09/21,09:30,0.590,0.884,0.558,1.072,0.758,0.359,0.621,0.582,�쓌,2.3,��
2021/09/21,09:40,0.591,0.882,0.559,1.070,0.758,0.360,0.621,0.582,�쓌,3.1,��
2021/09/21,09:50,0.591,0.882,0.559,1.071,0.761,0.360,0.621,0.583,�쓌,3.5,��
2021/09/21,10:00,0.590,0.883,0.559,1.069,0.760,0.361,0.623,0.583,�쓌,3.1,��
2021/09/21,10:10,0.590,0.882,0.560,1.073,0.759,0.358,0.621,0.582,�쓌,2.8,��
2021/09/21,10:20,0.592,0.884,0.562,1.072,0.759,0.358,0.622,0.583,�쓌,3.6,��
2021/09/21,10:30,0.591,0.881,0.560,1.074,0.756,0.360,0.621,0.583,���쓌,4.1,��
2021/09/21,10:40,0.591,0.883,0.560,1.071,0.762,0.360,0.623,0.583,�쓌,3.9,��
2021/09/21,10:50,0.591,0.885,0.560,1.072,0.762,0.360,0.622,0.583,���쓌,2.6,��
2021/09/21,11:00,0.592,0.886,0.562,1.073,0.761,0.360,0.621,0.582,�쓌,4.2,��
2021/09/21,11:10,0.591,0.884,0.559,1.072,0.763,0.360,0.623,0.584,�쓌,3.5,��
2021/09/21,11:20,0.593,0.883,0.561,1.071,0.761,0.360,0.623,0.582,�쓌,4.0,��
2021/09/21,11:30,0.591,0.885,0.560,1.073,0.762,0.359,0.624,0.584,�쓌,5.7,��
2021/09/21,11:40,0.592,0.883,0.560,1.072,0.761,0.360,0.623,0.581,�쓌,5.0,��
2021/09/21,11:50,0.591,0.887,0.561,1.073,0.763,0.360,0.623,0.583,��쓌,5.3,��
2021/09/21,12:00,0.593,0.887,0.562,1.071,0.765,0.361,0.623,0.583,��쓌,5.1,��
2021/09/21,12:10,0.592,0.886,0.562,1.071,0.765,0.360,0.623,0.582,��쓌,4.1,��
2021/09/21,12:20,0.592,0.888,0.562,1.071,0.765,0.361,0.623,0.584,�쓌,5.7,��
2021/09/21,12:30,0.593,0.887,0.561,1.074,0.763,0.361,0.623,0.582,���쓌,4.6,��
2021/09/21,12:40,0.591,0.887,0.562,1.069,0.765,0.360,0.623,0.583,�쓌,4.6,��
2021/09/21,12:50,0.594,0.883,0.562,1.072,0.763,0.360,0.624,0.582,�쓌,4.9,��
2021/09/21,13:00,0.592,0.886,0.562,1.071,0.763,0.360,0.624,0.582,���쓌,4.3,��
2021/09/21,13:10,0.592,0.885,0.563,1.073,0.766,0.361,0.624,0.583,���쓌,4.4,��
2021/09/21,13:20,0.593,0.887,0.564,1.071,0.765,0.360,0.625,0.583,�쓌,5.1,��
2021/09/21,13:30,0.592,0.888,0.563,1.071,0.764,0.360,0.623,0.583,�쓌,4.8,��
2021/09/21,13:40,0.593,0.888,0.562,1.073,0.764,0.361,0.625,0.583,��쓌,4.6,��
2021/09/21,13:50,0.593,0.888,0.562,1.071,0.763,0.362,0.624,0.584,�쓌,5.1,��
2021/09/21,14:00,0.593,0.887,0.563,1.074,0.764,0.360,0.624,0.582,��쓌,4.7,��
2021/09/21,14:10,0.594,0.888,0.563,1.074,0.765,0.362,0.624,0.584,��쓌,4.7,��
2021/09/21,14:20,0.593,0.888,0.564,1.073,0.766,0.361,0.624,0.583,��쓌,5.3,��
2021/09/21,14:30,0.592,0.887,0.562,1.075,0.766,0.361,0.625,0.585,��쓌,5.4,��
2021/09/21,14:40,0.594,0.887,0.562,1.073,0.768,0.361,0.625,0.585,�쓌,5.1,��
2021/09/21,14:50,0.595,0.888,0.562,1.073,0.765,0.361,0.625,0.583,��쓌,5.5,��
2021/09/21,15:00,0.593,0.888,0.563,1.074,0.766,0.361,0.627,0.583,��쓌,5.9,��
2021/09/21,15:10,0.593,0.888,0.564,1.073,0.765,0.362,0.624,0.582,�쓌,5.1,��
2021/09/21,15:20,0.594,0.887,0.563,1.072,0.765,0.360,0.624,0.583,��쓌,5.1,��
2021/09/21,15:30,0.593,0.887,0.562,1.075,0.766,0.362,0.625,0.583,��쓌,5.2,��
2021/09/21,15:40,0.592,0.887,0.563,1.073,0.765,0.360,0.624,0.584,�쓌,4.4,��
2021/09/21,15:50,0.593,0.886,0.564,1.074,0.765,0.361,0.624,0.584,�쓌,4.7,��
2021/09/21,16:00,0.594,0.887,0.562,1.073,0.766,0.361,0.624,0.583,��쓌,5.0,��
2021/09/21,16:10,0.592,0.887,0.564,1.071,0.764,0.361,0.625,0.583,��쓌,5.2,��
2021/09/21,16:20,0.594,0.888,0.561,1.071,0.768,0.362,0.625,0.582,��쓌,5.8,��
2021/09/21,16:30,0.594,0.887,0.563,1.071,0.765,0.362,0.623,0.583,��쓌,4.5,��
2021/09/21,16:40,0.591,0.886,0.561,1.070,0.765,0.361,0.624,0.585,��쓌,4.7,��
2021/09/21,16:50,0.593,0.887,0.562,1.070,0.766,0.361,0.625,0.584,��쓌,5.3,��
2021/09/21,17:00,0.594,0.889,0.562,1.073,0.766,0.362,0.623,0.582,��쓌,5.5,��
2021/09/21,17:10,0.593,0.889,0.562,1.074,0.765,0.362,0.625,0.582,��쓌,4.8,��
2021/09/21,17:20,0.593,0.890,0.562,1.071,0.766,0.364,0.626,0.583,��쓌,6.0,��
2021/09/21,17:30,0.593,0.893,0.562,1.072,0.766,0.363,0.625,0.584,��쓌,5.4,��
2021/09/21,17:40,0.592,0.890,0.562,1.074,0.765,0.363,0.626,0.585,��,5.9,��
2021/09/21,17:50,0.594,0.889,0.563,1.073,0.765,0.362,0.627,0.586,��,5.4,��
2021/09/21,18:00,0.592,0.892,0.563,1.076,0.766,0.363,0.627,0.586,��,5.5,��
2021/09/21,18:10,0.592,0.892,0.564,1.075,0.765,0.363,0.626,0.586,��,4.9,��
2021/09/21,18:20,0.592,0.893,0.565,1.073,0.766,0.363,0.626,0.585,��,5.2,��
2021/09/21,18:30,0.593,0.891,0.566,1.074,0.767,0.362,0.627,0.585,��,4.9,��
2021/09/21,18:40,0.593,0.893,0.565,1.074,0.769,0.362,0.626,0.583,��,5.4,��
2021/09/21,18:50,0.593,0.889,0.565,1.075,0.768,0.363,0.625,0.584,��,4.3,��
2021/09/21,19:00,0.594,0.892,0.565,1.075,0.768,0.362,0.625,0.585,��,2.8,��
2021/09/21,19:10,0.592,0.893,0.565,1.074,0.768,0.362,0.625,0.586,��쐼,2.9,��
2021/09/21,19:20,0.591,0.891,0.565,1.075,0.768,0.363,0.626,0.584,��쐼,3.6,��
2021/09/21,19:30,0.592,0.891,0.565,1.075,0.770,0.363,0.626,0.585,��,4.2,��
2021/09/21,19:40,0.595,0.892,0.565,1.073,0.766,0.364,0.625,0.584,��,6.4,��
2021/09/21,19:50,0.593,0.889,0.565,1.075,0.767,0.361,0.625,0.585,��,7.2,��
2021/09/21,20:00,0.594,0.890,0.565,1.075,0.768,0.361,0.627,0.585,��,7.1,��
2021/09/21,20:10,0.594,0.891,0.565,1.073,0.768,0.362,0.624,0.585,��,6.0,��
2021/09/21,20:20,0.593,0.888,0.566,1.072,0.767,0.361,0.626,0.584,��,5.4,��
2021/09/21,20:30,0.594,0.891,0.564,1.075,0.767,0.362,0.628,0.585,��쐼,4.7,��
2021/09/21,20:40,0.593,0.891,0.564,1.073,0.768,0.362,0.625,0.586,��쐼,5.6,��
2021/09/21,20:50,0.595,0.889,0.564,1.074,0.769,0.364,0.626,0.585,��쐼,5.4,��
2021/09/21,21:00,0.593,0.889,0.568,1.075,0.769,0.361,0.626,0.584,��쐼,4.8,��
2021/09/21,21:10,0.594,0.891,0.564,1.074,0.768,0.362,0.627,0.586,��쐼,4.6,��
2021/09/21,21:20,0.592,0.889,0.565,1.075,0.768,0.361,0.626,0.585,��,4.2,��
2021/09/21,21:30,0.594,0.889,0.564,1.075,0.768,0.363,0.625,0.585,��,3.6,��
2021/09/21,21:40,0.595,0.887,0.564,1.075,0.768,0.362,0.625,0.585,��,3.7,��
2021/09/21,21:50,0.595,0.889,0.564,1.075,0.766,0.363,0.627,0.584,��,4.7,��
2021/09/21,22:00,0.594,0.888,0.564,1.074,0.769,0.361,0.625,0.586,��,5.0,��
2021/09/21,22:10,0.595,0.889,0.564,1.074,0.769,0.361,0.627,0.585,��,5.5,��
2021/09/21,22:20,0.594,0.888,0.563,1.074,0.768,0.363,0.625,0.585,��,4.0,��
2021/09/21,22:30,0.593,0.887,0.563,1.076,0.768,0.362,0.624,0.586,��,4.2,��
2021/09/21,22:40,0.593,0.889,0.565,1.073,0.767,0.364,0.624,0.585,��,5.3,��
2021/09/21,22:50,0.594,0.889,0.564,1.076,0.768,0.362,0.624,0.584,��,4.7,��
2021/09/21,23:00,0.593,0.887,0.565,1.075,0.769,0.361,0.626,0.586,��,4.9,��
2021/09/21,23:10,0.592,0.886,0.563,1.073,0.769,0.363,0.624,0.584,��,4.5,��
2021/09/21,23:20,0.594,0.888,0.564,1.074,0.765,0.362,0.624,0.585,��,5.3,��
2021/09/21,23:30,0.594,0.885,0.565,1.076,0.767,0.362,0.625,0.584,��쓌,4.8,��
2021/09/21,23:40,0.594,0.887,0.564,1.072,0.767,0.363,0.625,0.585,��쓌,3.7,��
2021/09/21,23:50,0.593,0.888,0.563,1.072,0.767,0.363,0.627,0.585,��쓌,4.2,��
